Tracking 19247 objects as of 22-Sep-2018
HD Live streaming from Space Station
objects crossing your sky now

CZ-4C DEB

Track CZ-4C DEB now!
10-day predictions


NORAD ID: 39231
Int'l Code: 2013-037H
Perigee: 676.0 km
Apogee: 1,046.3 km
Inclination: 98.1 °
Period: 102.0 minutes
Semi major axis: 7232 km
RCS: Unknown
Launch date: July 19, 2013
Source: People's Republic of China (PRC)
Launch site: Taiyaun Space Center, China (TSC)

Note: This is SATELLITE DEBRIS
aabbcc
Your satellite tracking list
Your tracking list is empty




NASA's NSSDC Master Catalog

Two Line Element Set (TLE):
1 39231U 13037H   18263.40672296 +.00000203 +00000-0 +97961-4 0  9999
2 39231 098.1146 130.2249 0256055 149.0790 212.5751 14.11563694261128
Source of the keplerian elements: AFSPC